Location: Peebles
(55.6412°N, 3.1714°W)
Time: 22:46:30
(UTC+00:00)

METEOR 2-5 DEB - Visible Passes

Search period start: 28 November 2023 00:00
Search period end: 08 December 2023 00:00
Orbit: 841 x 853 km, 81.2° (Epoch: 15 November)

Date Brightness Start Highest point End Pass type
(mag) Time Alt. Az. Time Alt. Az. Time Alt. Az.
30 Nov ? 07:28:55 10° NNE 07:31:25 13° NE 07:33:55 10° ENE visible
01 Dec ? 07:15:57 10° NNE 07:18:06 12° NE 07:20:15 10° ENE visible
02 Dec ? 07:03:03 10° NNE 07:04:47 11° NE 07:06:31 10° ENE visible
03 Dec ? 06:50:16 10° NNE 06:51:26 11° NE 06:52:37 10° NE visible
07 Dec ? 07:38:13 10° N 07:43:03 28° ENE 07:47:52 10° ESE visible
